Flag for Mexico Weather past 2 weeks in Playa del Carmen, Quintana Roo, Mexico

Now
73 °F

Clear.


Feels Like: 68 °F
Forecast: 82 / 90 °F
Wind: No wind

Location: Cozumel Civ / Mil

Current Time: Jul 28, 2014 at 4:16:50 AM

Latest Report: Jul 28, 2014 at 3:41 AM


Visibility: 7 mi

Pressure: 30.06 "Hg

Humidity: 100%

Dew point: 73 °F

Location of Playa del CarmenLocation

Historic Weather in Playa del Carmen — Graph

°F

Playa del Carmen temperature yesterday

Maximum temperature yesterday: 86 °F (at 10:42 AM)
Minimum temperature yesterday: 72 °F (at 6:42 AM)
Average temperature yesterday: 80 °F

Past Weeks' High & Low Weather Summary

 TemperatureHumidityPressure
High90 °F (Jul 19, 2:42 PM)100% (Jul 13, 2:40 AM)30.10 "Hg (Jul 13, 2:40 AM)
Low72 °F (Jul 13, 5:48 AM)49% (Jul 23, 2:44 PM)29.96 "Hg (Jul 21, 5:46 AM)
Average80 °F87%30.02 "Hg
* Reported Jul 13 2:40 AM — Jul 28 2:54 AM, Playa del Carmen, Weather by CustomWeather, © 2014

Note: Actual official high and low records may vary slightly from our data, if they occured in-between our weather recording intervals... More about our weather records

Advertising

Playa del Carmen weather history for previous 24 hours

 ConditionsComfort  
Time TempWeatherWind HumidityBarometerVisibility
2:54 AM
Jul 28
75 °FClear.No wind100%30.03 "Hg7 mi
1:47 AM75 °FClear.5 mph100%30.04 "Hg7 mi
12:50 AM75 °FClear.No wind100%30.05 "Hg7 mi
11:45 PM
Jul 27
75 °FPassing clouds.No wind100%30.09 "Hg7 mi
10:40 PM77 °FPassing clouds.5 mph100%30.08 "Hg7 mi
9:44 PM79 °FPassing clouds.5 mph94%30.09 "Hg7 mi
8:42 PM81 °FPassing clouds.3 mph89%30.05 "Hg7 mi
7:53 PM81 °FScattered clouds.8 mph89%30.05 "Hg7 mi
6:49 PM82 °FScattered clouds.9 mph84%30.03 "Hg8 mi
5:51 PM84 °FPartly sunny.10 mph79%30.04 "Hg8 mi
4:46 PM86 °FScattered clouds.14 mph75%30.03 "Hg8 mi
3:48 PM86 °FScattered clouds.16 mph75%30.06 "Hg8 mi
2:44 PM86 °FScattered clouds.14 mph75%30.05 "Hg8 mi
1:41 PM86 °FScattered clouds.16 mph75%30.07 "Hg8 mi
12:41 PM86 °FScattered clouds.15 mph75%30.06 "Hg8 mi
11:46 AM86 °FScattered clouds.16 mph70%30.09 "Hg8 mi
10:42 AM86 °FPassing clouds.15 mph70%30.09 "Hg8 mi
9:43 AM84 °FPassing clouds.8 mph74%30.10 "Hg8 mi
8:43 AM82 °FScattered clouds.7 mph84%30.07 "Hg8 mi
7:41 AM77 °FPassing clouds.No wind94%30.06 "Hg8 mi
6:42 AM72 °FPassing clouds.No wind100%30.03 "Hg8 mi
5:48 AM73 °FClear.No wind100%30.03 "Hg7 mi
4:55 AM73 °FClear.No wind100%30.02 "Hg7 mi
Weather by CustomWeather, © 2014

See weather overviewHow to use our weather pages